Time,TemperatureF,DewpointF,PressureIn,WindDirection,WindDirectionDegrees,WindSpeedMPH,WindSpeedGustMPH,Humidity,HourlyPrecipIn,Conditions,Clouds,dailyrainin,SoftwareType,DateUTC
2013-09-10 00:11:00,66.1,64.0,30.21,ESE,121,0.0,0.0,94,0.00,,,0.00,weatherlink.com 1.10,2013-09-10 04:11:00,
2013-09-10 00:26:00,65.6,64.0,30.21,ESE,121,0.0,0.0,94,0.00,,,0.00,weatherlink.com 1.10,2013-09-10 04:26:00,
2013-09-10 00:42:00,65.0,63.0,30.21,ESE,121,0.0,0.0,94,0.00,,,0.00,weatherlink.com 1.10,2013-09-10 04:42:00,
2013-09-10 00:57:00,64.7,63.0,30.21,ESE,121,0.0,0.0,95,0.00,,,0.00,weatherlink.com 1.10,2013-09-10 04:57:00,
2013-09-10 01:12:00,64.3,63.0,30.22,ESE,121,0.0,0.0,95,0.00,,,0.00,weatherlink.com 1.10,2013-09-10 05:12:00,
2013-09-10 01:27:00,64.0,63.0,30.22,ESE,121,0.0,0.0,95,0.00,,,0.00,weatherlink.com 1.10,2013-09-10 05:27:00,
2013-09-10 01:42:00,63.8,63.0,30.23,ESE,121,0.0,0.0,96,0.00,,,0.00,weatherlink.com 1.10,2013-09-10 05:42:00,
2013-09-10 01:57:00,63.6,63.0,30.23,ESE,121,0.0,0.0,96,0.00,,,0.00,weatherlink.com 1.10,2013-09-10 05:57:00,
2013-09-10 02:12:00,63.7,63.0,30.23,ESE,121,0.0,0.0,96,0.00,,,0.00,weatherlink.com 1.10,2013-09-10 06:12:00,
2013-09-10 02:27:00,63.4,62.0,30.23,ESE,121,0.0,0.0,96,0.00,,,0.00,weatherlink.com 1.10,2013-09-10 06:27:00,
2013-09-10 02:42:00,63.5,62.0,30.23,ESE,121,0.0,0.0,96,0.00,,,0.00,weatherlink.com 1.10,2013-09-10 06:42:00,
2013-09-10 02:57:00,63.5,62.0,30.23,ESE,121,0.0,0.0,96,0.00,,,0.00,weatherlink.com 1.10,2013-09-10 06:57:00,
2013-09-10 03:12:00,63.1,62.0,30.23,ESE,121,0.0,0.0,95,0.00,,,0.00,weatherlink.com 1.10,2013-09-10 07:12:00,
2013-09-10 03:27:00,62.8,61.0,30.24,ESE,121,0.0,0.0,95,0.00,,,0.00,weatherlink.com 1.10,2013-09-10 07:27:00,
2013-09-10 03:42:00,62.6,62.0,30.24,ESE,121,0.0,0.0,96,0.00,,,0.00,weatherlink.com 1.10,2013-09-10 07:42:00,
2013-09-10 03:57:00,62.2,61.0,30.24,ESE,121,0.0,0.0,96,0.00,,,0.00,weatherlink.com 1.10,2013-09-10 07:57:00,
2013-09-10 04:12:00,62.0,61.0,30.24,ESE,121,0.0,0.0,96,0.00,,,0.00,weatherlink.com 1.10,2013-09-10 08:12:00,
2013-09-10 04:27:00,61.9,61.0,30.24,ESE,121,0.0,0.0,97,0.00,,,0.00,weatherlink.com 1.10,2013-09-10 08:27:00,
2013-09-10 04:42:00,61.8,61.0,30.24,ESE,121,0.0,0.0,97,0.00,,,0.00,weatherlink.com 1.10,2013-09-10 08:42:00,
2013-09-10 04:57:00,61.7,61.0,30.24,ESE,121,0.0,0.0,97,0.00,,,0.00,weatherlink.com 1.10,2013-09-10 08:57:00,
2013-09-10 05:12:00,61.6,61.0,30.24,ESE,121,0.0,0.0,97,0.00,,,0.00,weatherlink.com 1.10,2013-09-10 09:12:00,
2013-09-10 05:27:00,61.4,61.0,30.25,ESE,121,0.0,0.0,97,0.00,,,0.00,weatherlink.com 1.10,2013-09-10 09:27:00,
2013-09-10 05:42:00,61.4,61.0,30.25,ESE,121,0.0,0.0,97,0.00,,,0.00,weatherlink.com 1.10,2013-09-10 09:42:00,
2013-09-10 05:57:00,61.2,60.0,30.25,ESE,121,0.0,0.0,97,0.00,,,0.00,weatherlink.com 1.10,2013-09-10 09:57:00,
2013-09-10 06:12:00,60.8,60.0,30.25,ESE,121,0.0,0.0,97,0.00,,,0.00,weatherlink.com 1.10,2013-09-10 10:12:00,
2013-09-10 06:27:00,60.9,60.0,30.26,ESE,121,0.0,0.0,98,0.00,,,0.00,weatherlink.com 1.10,2013-09-10 10:27:00,
2013-09-10 06:42:00,61.0,61.0,30.26,ESE,121,0.0,0.0,98,0.00,,,0.00,weatherlink.com 1.10,2013-09-10 10:42:00,
2013-09-10 06:57:00,61.0,61.0,30.27,ESE,121,0.0,0.0,98,0.00,,,0.00,weatherlink.com 1.10,2013-09-10 10:57:00,
2013-09-10 07:12:00,61.1,61.0,30.27,ESE,121,0.0,0.0,98,0.00,,,0.00,weatherlink.com 1.10,2013-09-10 11:12:00,
2013-09-10 07:27:00,61.0,61.0,30.28,ESE,121,0.0,0.0,98,0.00,,,0.00,weatherlink.com 1.10,2013-09-10 11:27:00,
2013-09-10 07:42:00,61.3,61.0,30.28,ESE,121,0.0,0.0,98,0.00,,,0.00,weatherlink.com 1.10,2013-09-10 11:42:00,
2013-09-10 07:57:00,61.7,62.0,30.28,ESE,121,0.0,0.0,99,0.00,,,0.00,weatherlink.com 1.10,2013-09-10 11:57:00,
2013-09-10 08:12:00,61.4,61.0,30.28,ESE,121,0.0,0.0,98,0.00,,,0.00,weatherlink.com 1.10,2013-09-10 12:12:00,
2013-09-10 08:27:00,61.4,61.0,30.28,ESE,121,0.0,0.0,98,0.00,,,0.00,weatherlink.com 1.10,2013-09-10 12:27:00,
2013-09-10 08:42:00,62.2,62.0,30.29,ESE,121,0.0,0.0,98,0.00,,,0.00,weatherlink.com 1.10,2013-09-10 12:42:00,
2013-09-10 08:57:00,62.7,62.0,30.29,ESE,121,0.0,0.0,98,0.00,,,0.00,weatherlink.com 1.10,2013-09-10 12:57:00,
2013-09-10 09:12:00,63.4,63.0,30.30,ESE,119,0.0,0.0,98,0.00,,,0.00,weatherlink.com 1.10,2013-09-10 13:12:00,
2013-09-10 09:27:00,64.6,64.0,30.30,ESE,119,0.0,0.0,99,0.00,,,0.00,weatherlink.com 1.10,2013-09-10 13:27:00,
2013-09-10 09:42:00,65.9,65.0,30.30,SSE,150,0.0,0.0,98,0.00,,,0.00,weatherlink.com 1.10,2013-09-10 13:42:00,
2013-09-10 09:57:00,67.0,66.0,30.31,SSE,150,0.0,0.0,96,0.00,,,0.00,weatherlink.com 1.10,2013-09-10 13:57:00,
2013-09-10 10:12:00,68.5,67.0,30.31,SSE,150,0.0,0.0,94,0.00,,,0.00,weatherlink.com 1.10,2013-09-10 14:12:00,
2013-09-10 10:28:00,69.7,67.0,30.31,SSE,150,0.0,0.0,90,0.00,,,0.00,weatherlink.com 1.10,2013-09-10 14:28:00,
2013-09-10 10:58:00,73.1,68.0,30.30,West,261,0.0,0.0,83,0.00,,,0.00,weatherlink.com 1.10,2013-09-10 14:58:00,
2013-09-10 11:13:00,74.4,69.0,30.31,West,263,0.0,0.0,82,0.00,,,0.00,weatherlink.com 1.10,2013-09-10 15:13:00,
2013-09-10 11:28:00,75.3,68.0,30.30,West,261,0.0,4.0,78,0.00,,,0.00,weatherlink.com 1.10,2013-09-10 15:28:00,
2013-09-10 11:43:00,76.0,68.0,30.30,WSW,250,1.0,2.0,76,0.00,,,0.00,weatherlink.com 1.10,2013-09-10 15:43:00,
2013-09-10 11:58:00,76.4,68.0,30.30,West,261,0.0,4.0,74,0.00,,,0.00,weatherlink.com 1.10,2013-09-10 15:58:00,
2013-09-10 12:13:00,76.9,67.0,30.29,West,271,0.0,3.0,72,0.00,,,0.00,weatherlink.com 1.10,2013-09-10 16:13:00,
2013-09-10 12:28:00,77.3,66.0,30.29,West,259,2.0,4.0,69,0.00,,,0.00,weatherlink.com 1.10,2013-09-10 16:28:00,
2013-09-10 12:43:00,77.3,66.0,30.29,West,267,0.0,3.0,69,0.00,,,0.00,weatherlink.com 1.10,2013-09-10 16:43:00,
2013-09-10 12:58:00,77.5,69.0,30.28,WSW,252,0.0,0.0,75,0.00,,,0.00,weatherlink.com 1.10,2013-09-10 16:58:00,
2013-09-10 13:13:00,78.2,69.0,30.28,SW,224,0.0,2.0,74,0.00,,,0.00,weatherlink.com 1.10,2013-09-10 17:13:00,
2013-09-10 13:28:00,78.7,69.0,30.28,West,264,0.0,2.0,72,0.00,,,0.00,weatherlink.com 1.10,2013-09-10 17:28:00,
2013-09-10 13:43:00,79.4,70.0,30.28,West,263,0.0,0.0,72,0.00,,,0.00,weatherlink.com 1.10,2013-09-10 17:43:00,
2013-09-10 13:58:00,79.3,68.0,30.27,West,263,0.0,0.0,68,0.00,,,0.00,weatherlink.com 1.10,2013-09-10 17:58:00,
2013-09-10 14:13:00,79.4,70.0,30.27,West,263,0.0,0.0,72,0.00,,,0.00,weatherlink.com 1.10,2013-09-10 18:13:00,
2013-09-10 14:28:00,80.3,70.0,30.27,SW,223,0.0,0.0,70,0.00,,,0.00,weatherlink.com 1.10,2013-09-10 18:28:00,
2013-09-10 14:43:00,80.6,70.0,30.26,SW,223,0.0,0.0,70,0.00,,,0.00,weatherlink.com 1.10,2013-09-10 18:43:00,
2013-09-10 14:58:00,80.2,69.0,30.25,West,264,3.0,3.0,69,0.00,,,0.00,weatherlink.com 1.10,2013-09-10 18:58:00,
2013-09-10 15:13:00,80.0,70.0,30.25,WSW,237,0.0,2.0,71,0.00,,,0.00,weatherlink.com 1.10,2013-09-10 19:13:00,
2013-09-10 15:28:00,79.9,70.0,30.25,SW,236,0.0,0.0,71,0.00,,,0.00,weatherlink.com 1.10,2013-09-10 19:28:00,
2013-09-10 15:43:00,79.8,69.0,30.24,SW,236,0.0,0.0,70,0.00,,,0.00,weatherlink.com 1.10,2013-09-10 19:43:00,
2013-09-10 15:58:00,79.5,70.0,30.24,SW,217,0.0,0.0,72,0.00,,,0.00,weatherlink.com 1.10,2013-09-10 19:58:00,
2013-09-10 16:13:00,79.4,70.0,30.23,SW,217,0.0,0.0,72,0.00,,,0.00,weatherlink.com 1.10,2013-09-10 20:13:00,
2013-09-10 16:28:00,79.1,70.0,30.23,SW,217,0.0,0.0,74,0.00,,,0.00,weatherlink.com 1.10,2013-09-10 20:28:00,
2013-09-10 16:43:00,78.8,69.0,30.23,SW,217,0.0,0.0,73,0.00,,,0.00,weatherlink.com 1.10,2013-09-10 20:43:00,
2013-09-10 16:58:00,78.5,70.0,30.22,SW,217,0.0,0.0,74,0.00,,,0.00,weatherlink.com 1.10,2013-09-10 20:58:00,
2013-09-10 17:13:00,78.3,69.0,30.22,SW,217,0.0,0.0,73,0.00,,,0.00,weatherlink.com 1.10,2013-09-10 21:13:00,
2013-09-10 17:28:00,77.6,68.0,30.22,SW,217,0.0,0.0,73,0.00,,,0.00,weatherlink.com 1.10,2013-09-10 21:28:00,
2013-09-10 17:43:00,77.1,68.0,30.22,SW,217,0.0,0.0,74,0.00,,,0.00,weatherlink.com 1.10,2013-09-10 21:43:00,
2013-09-10 17:58:00,76.2,68.0,30.22,SW,217,0.0,0.0,75,0.00,,,0.00,weatherlink.com 1.10,2013-09-10 21:58:00,
2013-09-10 18:13:00,75.8,68.0,30.22,SW,217,0.0,0.0,76,0.00,,,0.00,weatherlink.com 1.10,2013-09-10 22:13:00,
2013-09-10 18:28:00,75.7,68.0,30.23,SW,217,0.0,0.0,77,0.00,,,0.00,weatherlink.com 1.10,2013-09-10 22:28:00,
2013-09-10 18:43:00,75.7,68.0,30.23,SW,217,0.0,0.0,78,0.00,,,0.00,weatherlink.com 1.10,2013-09-10 22:43:00,
2013-09-10 18:58:00,75.5,68.0,30.23,SW,217,0.0,0.0,78,0.00,,,0.00,weatherlink.com 1.10,2013-09-10 22:58:00,
2013-09-10 19:13:00,75.1,67.0,30.23,SW,217,0.0,0.0,76,0.00,,,0.00,weatherlink.com 1.10,2013-09-10 23:13:00,
2013-09-10 19:28:00,74.6,67.0,30.23,SW,217,0.0,0.0,76,0.00,,,0.00,weatherlink.com 1.10,2013-09-10 23:28:00,
2013-09-10 19:43:00,74.2,67.0,30.24,SW,217,0.0,0.0,77,0.00,,,0.00,weatherlink.com 1.10,2013-09-10 23:43:00,
2013-09-10 19:58:00,73.3,66.0,30.25,SW,217,0.0,0.0,79,0.00,,,0.00,weatherlink.com 1.10,2013-09-10 23:58:00,
2013-09-10 20:13:00,72.3,67.0,30.25,SW,217,0.0,0.0,82,0.00,,,0.00,weatherlink.com 1.10,2013-09-11 00:13:00,
2013-09-10 20:28:00,71.5,67.0,30.25,SW,217,0.0,0.0,85,0.00,,,0.00,weatherlink.com 1.10,2013-09-11 00:28:00,
2013-09-10 20:43:00,70.9,67.0,30.26,SW,217,0.0,0.0,88,0.00,,,0.00,weatherlink.com 1.10,2013-09-11 00:43:00,
2013-09-10 20:58:00,70.4,67.0,30.27,SW,217,0.0,0.0,88,0.00,,,0.00,weatherlink.com 1.10,2013-09-11 00:58:00,
2013-09-10 21:13:00,69.8,66.0,30.27,SW,217,0.0,0.0,88,0.00,,,0.00,weatherlink.com 1.10,2013-09-11 01:13:00,
2013-09-10 21:28:00,69.4,66.0,30.28,SW,217,0.0,0.0,89,0.00,,,0.00,weatherlink.com 1.10,2013-09-11 01:28:00,
2013-09-10 21:43:00,68.8,66.0,30.29,SW,217,0.0,0.0,91,0.00,,,0.00,weatherlink.com 1.10,2013-09-11 01:43:00,
2013-09-10 21:58:00,68.4,66.0,30.29,SW,217,0.0,0.0,91,0.00,,,0.00,weatherlink.com 1.10,2013-09-11 01:58:00,
2013-09-10 22:13:00,68.1,65.0,30.29,SW,217,0.0,0.0,91,0.00,,,0.00,weatherlink.com 1.10,2013-09-11 02:13:00,
2013-09-10 22:28:00,67.8,66.0,30.30,SW,217,0.0,0.0,92,0.00,,,0.00,weatherlink.com 1.10,2013-09-11 02:28:00,
2013-09-10 22:43:00,67.4,65.0,30.30,SW,217,0.0,0.0,93,0.00,,,0.00,weatherlink.com 1.10,2013-09-11 02:43:00,
2013-09-10 22:59:00,67.4,65.0,30.30,SW,217,0.0,0.0,93,0.00,,,0.00,weatherlink.com 1.10,2013-09-11 02:59:00,
2013-09-10 23:14:00,67.2,65.0,30.30,SW,217,0.0,0.0,93,0.00,,,0.00,weatherlink.com 1.10,2013-09-11 03:14:00,
2013-09-10 23:29:00,66.8,65.0,30.30,SW,217,0.0,0.0,93,0.00,,,0.00,weatherlink.com 1.10,2013-09-11 03:29:00,
2013-09-10 23:44:00,66.3,65.0,30.29,SW,217,0.0,0.0,95,0.00,,,0.00,weatherlink.com 1.10,2013-09-11 03:44:00,
2013-09-10 23:59:00,66.1,65.0,30.29,SW,217,0.0,0.0,95,0.00,,,0.00,weatherlink.com 1.10,2013-09-11 03:59:00,